Blythe, CA

3:33 AM PST on February 08, 2016 (GMT -0800)
Blythe

Weather History for KBLH - August, 2012

Change the Weather History Date:

Tuesday, August 7, 2012

  Actual Average Record
Temperature  
Mean Temperature 100 °F -  
Max Temperature 113 °F 106 °F 116 °F (2001)
Min Temperature 89 °F 80 °F 68 °F (1988)
Cooling Degree Days 35    
Growing Degree Days 50 (Base 50)    
Moisture  
Dew Point 60 °F    
Average Humidity 26    
Maximum Humidity 41    
Minimum Humidity 16    
Precipitation  
Precipitation 0.00 in - - ()
Sea Level Pressure  
Sea Level Pressure 29.77 in    
Wind  
Wind Speed 5 mph (South)    
Max Wind Speed 13 mph    
Max Gust Speed -    
Visibility 10 miles    
Events      
Averages and records for this station are not official NWS values.
T = Trace of Precipitation, MM = Missing Value Source: NWS Daily Summary

Daily Weather History Graph

Daily Weather History Graph

Search for Another Location

Airport or City:

Trip Planner

Search our weather history database for the weather conditions in past years. The results will help you decide how hot, cold, wet, or windy it might be!

Date:

Astronomy

Aug. 07, 2012 Rise Set
Actual Time 5:55 AM PDT 7:32 PM PDT
Civil Twilight 5:28 AM PDT 7:59 PM PDT
Nautical Twilight 4:56 AM PDT 8:31 PM PDT
Astronomical Twilight 4:22 AM PDT 9:05 PM PDT
Moon 10:37 PM PDT (8/7) 11:26 AM PDT (8/7)
Length of Visible Light 14h 30m
Length of Day
13h 37m
Waning Gibbous, 69% of the Moon is Illuminated
Aug 7
Waning Gibbous
Aug 9
Last Quarter
Aug 17
New
Aug 24
First Quarter
Aug 31
Full

Hourly Weather History & Observations

Time (PDT) Temp. Heat Index Dew Point Humidity Pressure Visibility Wind Dir Wind Speed Gust Speed Precip Events Conditions
12:52 AM 98.1 °F 96.4 °F 55.9 °F 24% 29.78 in 10.0 mi SW 4.6 mph - N/A   Clear
1:52 AM 96.1 °F 94.8 °F 57.0 °F 27% 29.78 in 10.0 mi SSW 4.6 mph - N/A   Clear
2:52 AM 93.9 °F 92.9 °F 57.9 °F 30% 29.78 in 10.0 mi Calm Calm - N/A   Clear
3:52 AM 90.0 °F 89.1 °F 59.0 °F 35% 29.78 in 10.0 mi NNW 5.8 mph - N/A   Clear
4:52 AM 90.0 °F 89.7 °F 60.1 °F 37% 29.79 in 10.0 mi SW 3.5 mph - N/A   Clear
5:52 AM 89.1 °F 89.0 °F 61.0 °F 39% 29.81 in 10.0 mi Calm Calm - N/A   Clear
6:52 AM 91.9 °F 93.3 °F 64.0 °F 39% 29.83 in 10.0 mi SSW 9.2 mph - N/A   Clear
7:52 AM 96.1 °F 98.3 °F 64.0 °F 35% 29.84 in 10.0 mi WSW 6.9 mph - N/A   Clear
8:52 AM 95.0 °F 99.5 °F 68.0 °F 41% 29.85 in 10.0 mi SSE 10.4 mph - N/A   Clear
9:52 AM 100.0 °F 103.0 °F 64.0 °F 31% 29.84 in 10.0 mi South 5.8 mph - N/A   Clear
10:52 AM 102.9 °F 103.0 °F 59.0 °F 23% 29.85 in 10.0 mi Calm Calm - N/A   Clear
11:52 AM 106.0 °F 106.4 °F 57.9 °F 21% 29.83 in 10.0 mi Calm Calm - N/A   Clear
12:52 PM 108.0 °F 108.0 °F 57.9 °F 19% 29.80 in 10.0 mi Variable 4.6 mph - N/A   Clear
1:52 PM 109.9 °F 110.2 °F 57.0 °F 18% 29.77 in 10.0 mi Variable 3.5 mph - N/A   Clear
2:52 PM 111.9 °F 111.4 °F 55.9 °F 16% 29.75 in 10.0 mi Variable 6.9 mph - N/A   Clear
3:52 PM 111.9 °F 112.3 °F 57.0 °F 17% 29.72 in 10.0 mi SSE 8.1 mph - N/A   Clear
4:52 PM 111.9 °F 112.3 °F 57.9 °F 17% 29.70 in 10.0 mi SE 6.9 mph - N/A   Partly Cloudy
5:52 PM 111.9 °F 111.4 °F 55.9 °F 16% 29.68 in 10.0 mi SSE 5.8 mph - N/A   Partly Cloudy
6:52 PM 109.9 °F 110.2 °F 57.9 °F 18% 29.68 in 10.0 mi SSE 5.8 mph - N/A   Clear
7:52 PM 107.1 °F 109.6 °F 62.1 °F 23% 29.70 in 10.0 mi South 5.8 mph - N/A   Clear
8:52 PM 102.0 °F 105.2 °F 64.0 °F 29% 29.71 in 10.0 mi South 5.8 mph - N/A   Clear
9:52 PM 105.1 °F 106.4 °F 60.1 °F 23% 29.73 in 10.0 mi SW 12.7 mph - N/A   Clear
10:52 PM 100.0 °F 101.8 °F 63.0 °F 29% 29.74 in 10.0 mi South 8.1 mph - N/A   Clear
11:52 PM 99.0 °F 99.5 °F 61.0 °F 28% 29.74 in 10.0 mi South 11.5 mph - N/A   Clear